Simultaneous Nadir Overpasses (SNOs) Predictions

Prediction of SNOs between GOES-17 and TERRA Satellite Orbit:

Table of predicted SNOs for the next 14.0 days since TLE Epoch: 6/24/2023
Index Date Time (GOES-17) GOES-17 Lat,Lon TERRA Lat,Lon Distance(km) Time Diff (sec)
1 06/25/2023 04:54:10 -0.01,-104.71 0.45,-102.63 236.31 80
2 06/25/2023 17:14:20 0.01,-104.74 0.62,-107.53 317.73 80
3 06/27/2023 17:00:38 0.01,-104.74 -0.21,-103.57 132.25 80
4 06/28/2023 05:20:58 -0.01,-104.72 -0.83,-108.52 431.87 80
5 06/30/2023 05:01:56 -0.01,-104.72 0.03,-104.57 17.60 80
6 07/02/2023 04:45:33 -0.00,-104.72 0.84,-100.61 466.70 80
7 07/02/2023 17:05:44 0.00,-104.74 0.15,-105.52 88.01 80
8 07/04/2023 16:52:01 0.00,-104.73 -0.68,-101.56 361.10 80
9 07/05/2023 05:12:20 -0.01,-104.71 -0.38,-106.49 202.67 80
10 07/07/2023 04:53:17 -0.00,-104.71 0.48,-102.54 246.75 80
11 07/07/2023 17:13:27 0.00,-104.72 0.58,-107.44 308.41 80
